OK1VCF-5 Weather Reports


time (UTC)temp
C
wind
direction
speed
KPH
gust
KPH
rain 1hr
cm
rain 24hr
cm
rain mn
cm
humidity
%
barometer
mb
20260902033322 10 0 0.0 0.0 0.00 0.00 0.00 92 1026.0
20260902033248 10 0 0.0 0.0 0.00 0.00 0.00 92 1026.0
20260902031749 10 0 0.0 0.0 0.00 0.00 0.00 92 1025.8
20260902030246 10 0 0.0 0.0 0.00 0.00 0.00 92 1026.0
20260902024745 10 0 0.0 0.0 0.00 0.00 0.00 92 1026.0
20260902023616 10 0 0.0 0.0 0.00 0.00 0.00 92 1026.2
20260902023245 10 0 0.0 0.0 0.00 0.00 0.00 92 1026.2
20260902021748 10 0 0.0 0.0 0.00 0.00 0.00 92 1026.0
20260902020243 10 0 0.0 0.0 0.00 0.00 0.00 92 1026.0
20260902013319 10 0 0.0 0.0 0.00 0.00 0.00 92 1025.8
20260902013242 10 0 0.0 0.0 0.00 0.00 0.00 92 1025.8
20260902011741 11 0 0.0 0.0 0.00 0.00 0.00 91 1025.8
20260902004739 11 0 0.0 0.0 0.00 0.00 0.00 90 1025.8
20260902003238 11 0 0.0 0.0 0.00 0.00 0.00 90 1025.7
20260902001738 11 0 0.0 0.0 0.00 0.00 0.00 90 1025.9
20260901234736 11 0 0.0 0.0 0.00 0.00 0.00 90 1026.0
20260901233422 11 0 0.0 0.0 0.00 0.00 0.00 90 1025.8
20260901233235 11 0 0.0 0.0 0.00 0.00 0.00 90 1025.8
20260901231734 11 0 0.0 0.0 0.00 0.00 0.00 90 1026.0
20260901230235 11 0 0.0 0.0 0.00 0.00 0.00 90 1025.9
20260901224733 11 0 0.0 0.0 0.00 0.00 0.00 89 1026.0
20260901223232 11 0 0.0 0.0 0.00 0.00 0.00 88 1026.0
20260901221822 12 0 0.0 0.0 0.00 0.00 0.00 88 1026.1
20260901221739 12 0 0.0 0.0 0.00 0.00 0.00 88 1026.1
20260901221731 12 0 0.0 0.0 0.00 0.00 0.00 88 1026.1
20260901220231 12 0 0.0 0.0 0.00 0.00 0.00 88 1026.0
20260901214730 12 0 0.0 0.0 0.00 0.00 0.00 87 1026.0
20260901213229 12 0 0.0 0.0 0.00 0.00 0.00 86 1025.9
20260901211729 12 0 0.0 0.0 0.00 0.00 0.00 86 1025.8
20260901210227 12 0 0.0 0.0 0.00 0.00 0.00 85 1025.7
20260901203226 13 0 0.0 0.0 0.00 0.00 0.00 83 1025.4
20260901201725 13 0 0.0 0.0 0.00 0.00 0.00 80 1025.4
20260901200224 14 0 0.0 0.0 0.00 0.00 0.00 77 1025.4
20260901194732 14 0 0.0 0.0 0.00 0.00 0.00 77 1025.2
20260901194724 14 0 0.0 0.0 0.00 0.00 0.00 77 1025.2
20260901193224 15 0 0.0 0.0 0.00 0.00 0.00 76 1025.2
20260901190256 15 0 0.0 0.0 0.00 0.00 0.00 71 1025.0
20260901190224 15 0 0.0 0.0 0.00 0.00 0.00 71 1025.0
20260901181719 17 0 0.0 0.0 0.00 0.00 0.00 66 1024.2
20260901180218 17 0 0.0 0.0 0.00 0.00 0.00 64 1024.2
20260901174717 17 0 0.0 0.0 0.00 0.00 0.00 67 1024.0
20260901173414 18 0 0.0 0.0 0.00 0.00 0.00 64 1024.0
20260901173250 18 0 0.0 0.0 0.00 0.00 0.00 64 1024.0
20260901173216 18 0 0.0 0.0 0.00 0.00 0.00 64 1024.0
20260901172057 20 0 0.0 0.0 0.00 0.00 0.00 60 1023.9
20260901171716 20 0 0.0 0.0 0.00 0.00 0.00 60 1023.9
20260901170253 21 0 0.0 0.0 0.00 0.00 0.00 56 1024.0
20260901170215 21 0 0.0 0.0 0.00 0.00 0.00 56 1024.0
20260901164714 22 0 0.0 0.0 0.00 0.00 0.00 48 1023.8
20260901163213 22 0 0.0 0.0 0.00 0.00 0.00 48 1023.8
20260901160252 22 0 0.0 0.0 0.00 0.00 0.00 46 1023.8
20260901160212 22 0 0.0 0.0 0.00 0.00 0.00 46 1023.8
20260901154711 23 0 0.0 0.0 0.00 0.00 0.00 44 1023.8
20260901153252 24 0 0.0 0.0 0.00 0.00 0.00 42 1023.7
20260901153210 24 0 0.0 0.0 0.00 0.00 0.00 42 1023.7
20260901151744 25 0 0.0 0.0 0.00 0.00 0.00 40 1023.8
20260901151709 25 0 0.0 0.0 0.00 0.00 0.00 40 1023.8
20260901150209 25 0 0.0 0.0 0.00 0.00 0.00 42 1023.8
20260901144710 26 0 0.0 0.0 0.00 0.00 0.00 40 1023.9
20260901143207 25 0 0.0 0.0 0.00 0.00 0.00 42 1023.9
20260901141749 25 0 0.0 0.0 0.00 0.00 0.00 40 1024.0
20260901141706 25 0 0.0 0.0 0.00 0.00 0.00 40 1024.0
20260901140205 24 0 0.0 0.0 0.00 0.00 0.00 46 1024.1
20260901134753 25 0 0.0 0.0 0.00 0.00 0.00 42 1024.2
20260901134705 25 0 0.0 0.0 0.00 0.00 0.00 42 1024.2
20260901131705 26 0 0.0 0.0 0.00 0.00 0.00 39 1024.2
20260901124703 25 0 0.0 0.0 0.00 0.00 0.00 40 1024.4
20260901123247 23 0 0.0 0.0 0.00 0.00 0.00 45 1024.5
20260901123201 23 0 0.0 0.0 0.00 0.00 0.00 45 1024.5
20260901121701 24 0 0.0 0.0 0.00 0.00 0.00 42 1024.6
20260901120302 25 0 0.0 0.0 0.00 0.00 0.00 42 1024.7
20260901120200 25 0 0.0 0.0 0.00 0.00 0.00 42 1024.7
20260901114938 24 0 0.0 0.0 0.00 0.00 0.00 44 1024.8
20260901114658 24 0 0.0 0.0 0.00 0.00 0.00 44 1024.8
20260901113158 23 0 0.0 0.0 0.00 0.00 0.00 48 1024.8
20260901112453 23 0 0.0 0.0 0.00 0.00 0.00 46 1024.8
20260901111658 23 0 0.0 0.0 0.00 0.00 0.00 46 1024.8
20260901110250 23 0 0.0 0.0 0.00 0.00 0.00 50 1024.9
20260901110157 23 0 0.0 0.0 0.00 0.00 0.00 50 1024.9
20260901105116 22 0 0.0 0.0 0.00 0.00 0.00 50 1025.0
20260901104656 22 0 0.0 0.0 0.00 0.00 0.00 50 1025.0
20260901100155 23 0 0.0 0.0 0.00 0.00 0.00 48 1025.0
20260901094653 23 0 0.0 0.0 0.00 0.00 0.00 50 1024.8
20260901093151 22 0 0.0 0.0 0.00 0.00 0.00 50 1024.8
20260901091651 23 0 0.0 0.0 0.00 0.00 0.00 50 1024.9
20260901090151 23 0 0.0 0.0 0.00 0.00 0.00 52 1025.0
20260901084650 22 0 0.0 0.0 0.00 0.00 0.00 52 1025.2
20260901083245 21 0 0.0 0.0 0.00 0.00 0.00 56 1025.2
20260901083148 21 0 0.0 0.0 0.00 0.00 0.00 56 1025.2
20260901081652 21 0 0.0 0.0 0.00 0.00 0.00 58 1025.2
20260901080147 21 0 0.0 0.0 0.00 0.00 0.00 61 1025.0
20260901074647 19 0 0.0 0.0 0.00 0.00 0.00 65 1024.8
20260901073145 18 0 0.0 0.0 0.00 0.00 0.00 66 1024.8
20260901071647 18 0 0.0 0.0 0.00 0.00 0.00 68 1024.9
20260901070143 18 0 0.0 0.0 0.00 0.00 0.00 68 1024.8
20260901064645 18 0 0.0 0.0 0.00 0.00 0.00 73 1024.8
20260901063252 17 0 0.0 0.0 0.00 0.00 0.00 73 1024.6
20260901063142 17 0 0.0 0.0 0.00 0.00 0.00 73 1024.6
20260901061643 17 0 0.0 0.0 0.00 0.00 0.00 76 1024.5
20260901060140 16 0 0.0 0.0 0.00 0.00 0.00 78 1024.4
20260901054642 15 0 0.0 0.0 0.00 0.00 0.00 80 1024.4
20260901053139 15 0 0.0 0.0 0.00 0.00 0.00 82 1024.6
20260901051639 14 0 0.0 0.0 0.00 0.00 0.00 84 1024.5
20260901050249 14 0 0.0 0.0 0.00 0.00 0.00 86 1024.4
20260901050137 14 0 0.0 0.0 0.00 0.00 0.00 86 1024.4
20260901044636 13 0 0.0 0.0 0.00 0.00 0.00 88 1024.4
20260901043231 13 0 0.0 0.0 0.00 0.00 0.00 88 1024.3
20260901043137 13 0 0.0 0.0 0.00 0.00 0.00 88 1024.3
20260901041636 13 0 0.0 0.0 0.00 0.00 0.00 87 1024.2
20260901040253 13 0 0.0 0.0 0.00 0.00 0.00 86 1024.1
20260901040135 13 0 0.0 0.0 0.00 0.00 0.00 86 1024.1
20260901034635 13 0 0.0 0.0 0.00 0.00 0.00 86 1024.0